Location: Lane
(33.5226°N, 79.8788°W)
Time: 18:03:22
(UTC+00:00)

Transit 2A - Pass Details

Date: 27 September 2022
Orbit: 598 x 959 km, 66.7° (Epoch: 06 December)

Event Time Altitude Azimuth Distance (km) Brightness Sun altitude
Rises 16:05:34 0° 312° (NW) 3,039 8.8 51.5°
Reaches altitude 10° 16:08:33 10° 292° (WNW) 2,185 8.2 51.8°
Maximum altitude 16:11:41 17° 252° (WSW) 1,820 8.1 52.1°
Drops below altitude 10° 16:15:02 10° 213° (SSW) 2,329 8.9 52.3°
Sets 16:18:21 0° 194° (SSW) 3,333 9.7 52.6°
